Temperature
18 18 17 17 17 17 17 17 17 17 17 17 16 16 16 16 16 16 16 16 16 16 16 16 16 16 16 16 16 16 16 16 16 17 17 16 16 16 16 16 15 15 16
17 17 17 17 17 16 16 16 16 17 16 16 16 16 16 16 16 16 16 16 16 16 16 16 15 15 15 16 16 16 16 16 16 16 16 16 16 15 15 16 15 16 15
17 17 17 17 17 17 17 17 16 16 16 16 16 16 16 16 16 16 16 16 16 16 16 15 15 15 15 15 15 15 15 15 15 15 16 16 15 15 15 15 15 15 15
17 17 17 17 17 17 16 16 16 16 16 16 16 16 16 16 16 16 16 16 16 16 15 15 15 15 15 15 15 15 15 15 15 15 15 15 15 15 15 15 15 15 15
17 17 17 17 16 16 16 16 16 16 16 16 16 16 16 16 16 16 16 16 15 15 15 15 15 15 15 15 15 15 15 15 15 15 15 15 15 15 15 15 15 15 15
17 17 17 16 16 16 16 16 16 16 16 16 16 16 16 16 16 16 16 15 15 15 15 15 15 15 15 15 15 15 14 14 14 14 14 15 14 14 14 14 14 14 14
17 16 16 16 16 16 16 16 16 16 16 16 16 16 15 16 16 16 16 15 15 15 15 15 15 15 15 15 15 14 14 14 14 14 14 14 14 14 14 14 13 13 14
16 16 16 16 16 16 15 15 16 16 15 16 15 15 15 15 15 15 15 15 15 15 15 15 15 14 14 14 14 14 14 14 14 13 13 13 13 13 13 13 13 13 13
16 16 16 16 16 16 15 15 15 15 15 15 15 15 15 15 15 15 15 15 15 15 15 14 14 14 14 14 14 13 13 13 13 13 13 13 13 13 13 12 12 13 13
16 16 16 16 16 15 15 15 15 15 15 15 15 14 14 15 15 15 15 14 14 14 14 14 14 14 14 13 13 13 12 12 12 12 12 12 12 12 12 12 12 12 12
15 15 15 16 15 15 15 15 15 15 15 14 14 14 14 14 14 14 14 14 14 13 13 13 13 13 13 13 13 12 12 12 12 11 11 11 11 11 11 11 11 11 11
15 15 15 15 15 15 15 15 14 14 14 14 14 13 13 13 13 13 13 13 13 13 12 12 12 12 12 12 12 12 11 11 11 11 11 11 11 10 10 10 10 10 10
14 14 14 14 14 14 14 14 14 14 14 13 13 13 12 12 12 12 13 13 12 12 12 11 11 11 11 11 11 11 11 10 10 10 10 10 10 9 9 9 9 9 9
14 14 14 14 13 13 13 13 13 13 13 12 12 12 12 11 11 11 11 11 11 11 11 11 10 10 10 10 10 10 10 9 9 9 9 9 9 9 9 9 9 9 9
13 13 13 13 13 13 13 12 12 12 12 12 11 11 11 11 11 11 11 11 10 10 10 10 10 10 10 9 9 9 9 9 9 9 9 9 8 8 8 8 8 8 8
12 12 12 12 12 12 12 11 11 11 11 11 11 11 11 10 10 10 10 10 10 10 10 9 9 9 9 9 9 8 8 8 8 8 8 8 8 8 8 8 7 7 7
12 12 11 11 11 11 11 11 10 10 10 10 10 10 10 10 10 9 9 9 9 9 9 9 8 8 8 8 8 8 7 7 7 7 7 7 7 7 7 7 7 6 6
11 11 11 11 11 10 10 10 10 10 9 9 9 9 9 9 9 9 9 8 8 8 8 8 8 7 7 7 7 7 7 6 6 6 6 6 6 6 6 6 6 5 5
11 11 11 10 10 10 10 10 9 9 9 8 8 8 8 8 8 8 8 8 8 7 7 7 7 7 6 6 6 6 6 6 5 6 6 5 5 5 5 5 5 5 5
10 10 10 10 10 10 10 9 9 9 9 8 8 7 7 7 7 7 7 7 7 6 6 6 6 6 6 5 5 5 5 5 5 5 5 5 4 4 4 4 4 4 4
10 10 10 10 9 9 9 9 9 8 8 7 7 7 7 7 7 6 6 6 6 6 5 5 5 5 5 5 4 4 5 5 4 4 4 4 4 4 4 4 4 4 4
10 9 9 9 9 9 8 8 8 8 7 7 7 6 6 6 6 6 6 5 5 5 5 5 4 4 4 4 4 4 4 4 3 3 3 3 3 3 3 3 3 3 3
9 9 9 8 8 8 8 8 7 7 7 7 6 6 6 6 5 5 5 4 4 4 4 4 4 3 3 3 3 3 3 3 3 3 3 3 3 3 3 3 3 3 3
8 8 8 8 8 7 7 7 7 7 6 6 6 6 5 5 5 4 4 4 4 4 3 3 3 3 2 2 2 2 2 2 2 2 2 2 3 3 3 3 3 3 3
8 8 8 7 7 7 7 6 6 6 6 5 5 5 5 4 4 4 4 3 3 3 3 3 2 2 2 2 2 2 2 2 2 2 2 2 2 2 2 2 2 2 2
7 7 7 7 6 6 6 6 5 5 5 5 4 4 4 4 4 3 3 3 3 3 3 2 2 2 1 2 2 2 2 2 2 2 2 2 2 2 2 2 2 2 2
Wind_Speed
10 11 11 12 13 13 12 13 12 12 12 13 13 13 13 13 13 12 12 11 11 10 9 9 9 9 7 7 7 7 7 8 8 7 5 4 4 7 5 7 9 9 10
9 9 10 10 11 11 12 12 12 12 13 13 13 14 14 14 13 13 13 12 12 11 11 10 10 9 9 8 7 8 8 7 8 9 7 6 6 6 6 7 8 9 10
8 9 9 9 9 10 10 10 10 11 12 12 13 13 13 13 13 13 12 12 12 11 11 10 10 9 9 8 8 8 7 7 7 8 8 6 6 6 6 7 8 7 10
7 7 8 8 8 9 8 8 9 10 11 12 12 12 12 12 12 12 12 11 11 10 10 10 10 10 9 9 8 8 7 7 7 8 8 7 6 6 6 7 7 7 8
6 7 7 7 7 8 8 8 8 9 10 10 10 10 10 9 10 10 11 11 10 10 9 9 9 8 7 6 7 7 7 7 7 7 7 7 7 6 6 7 8 7 7
5 5 5 6 7 7 7 7 8 8 8 8 8 9 9 7 6 7 7 8 8 8 8 7 7 8 7 7 5 4 5 7 7 7 7 7 7 7 6 7 7 8 8
4 4 5 5 6 6 6 6 7 6 6 6 6 6 6 4 6 6 6 5 6 6 6 6 5 5 6 7 7 7 6 6 6 7 8 8 8 7 7 9 8 9 9
5 5 5 6 6 6 6 6 5 5 5 4 4 4 3 3 5 6 6 5 4 3 3 3 4 3 4 4 5 5 5 5 5 6 6 7 7 7 7 8 9 9 10
5 5 5 6 6 6 6 6 6 5 5 4 3 3 3 3 4 5 5 4 3 3 2 1 1 2 1 2 4 4 3 3 2 2 3 4 4 5 6 6 7 7 8
4 4 4 5 6 6 6 6 6 6 6 5 5 4 4 4 5 4 3 3 3 3 3 3 4 3 3 2 2 2 3 3 2 2 2 4 4 4 4 5 6 7 7
4 4 5 5 6 6 6 6 7 7 7 7 7 7 7 7 7 7 4 2 3 4 4 3 4 6 5 6 3 1 1 2 1 2 1 2 2 2 2 2 3 5 5
7 7 7 7 7 8 8 8 8 8 9 8 8 7 7 7 7 7 8 6 4 5 4 4 5 8 7 6 4 3 3 2 1 1 2 2 3 3 3 3 4 4 5
9 9 9 10 9 9 9 9 8 7 7 7 6 6 6 6 7 9 10 10 9 7 6 9 8 6 6 6 5 3 2 2 1 2 2 3 3 4 4 4 4 4 5
11 11 10 11 11 10 9 8 8 7 7 7 6 7 6 6 5 4 5 7 8 7 6 6 7 6 5 4 3 3 3 3 3 3 3 3 3 3 4 4 5 5 5
12 11 11 11 12 12 12 11 10 10 7 6 7 7 6 6 6 8 5 5 4 4 4 4 3 3 4 4 4 4 3 3 3 4 4 4 4 4 4 4 5 6 6
11 10 9 10 10 11 13 14 19 16 19 19 15 11 10 10 10 11 11 10 7 3 3 5 5 4 4 4 4 3 4 4 4 4 4 4 5 5 6 6 6 6 7
12 11 10 10 10 10 10 11 12 14 19 19 18 16 14 12 12 10 9 7 5 3 6 6 5 5 5 4 5 5 5 5 5 5 6 6 6 6 6 7 7 7 7
12 11 10 9 9 9 9 9 9 10 10 11 12 14 13 12 11 8 4 4 6 6 7 6 6 6 5 5 5 5 5 5 5 5 6 6 6 6 7 7 7 8 8
11 9 9 10 9 9 9 9 9 10 10 9 8 9 8 9 9 7 5 7 7 7 7 7 6 6 6 6 5 5 5 5 6 6 6 6 6 6 7 7 7 7 8
11 11 9 9 9 9 9 9 9 9 9 8 8 7 5 5 7 7 8 8 7 7 7 6 6 6 5 5 5 5 5 5 6 6 6 6 6 7 7 8 8 8 8
10 10 9 9 9 9 9 9 9 8 8 9 9 8 8 6 7 8 8 8 7 7 7 6 6 6 6 5 5 6 7 6 6 7 7 7 7 7 8 8 8 8 8
9 9 9 10 9 9 9 9 8 9 9 9 8 7 5 6 8 7 7 7 7 7 7 6 6 7 7 7 7 7 7 7 8 8 8 8 8 8 8 8 8 8 8
9 10 10 10 9 9 9 9 8 8 8 7 7 7 7 7 7 7 7 7 7 7 7 7 7 7 8 8 9 9 8 9 9 9 9 9 8 8 8 9 9 10 9
9 10 9 9 8 8 8 8 8 8 8 8 7 7 7 7 7 7 7 6 7 7 7 7 8 9 10 9 9 10 11 12 12 10 10 9 9 9 8 9 9 10 9
9 9 9 8 8 8 8 8 8 8 7 7 6 6 6 6 6 6 6 6 6 7 7 7 7 8 10 10 11 11 13 14 13 12 11 8 8 9 9 9 9 9 9
8 8 8 7 7 7 7 7 7 7 6 6 6 6 5 5 5 5 5 5 5 6 6 7 8 9 9 9 11 12 13 14 15 15 12 9 8 8 9 9 10 9 9
Wind_Direction
200 202 205 205 206 206 206 208 208 207 205 207 211 214 212 211 208 208 213 208 213 213 213 216 221 235 233 235 235 238 242 246 256 263 256 240 236 261 248 248 250 247 239
192 195 198 200 201 203 206 208 208 206 206 207 210 210 212 212 210 210 213 212 214 214 215 218 224 224 226 238 239 239 244 249 254 260 261 247 235 244 249 256 259 253 258
188 193 196 196 197 203 207 207 207 207 208 207 207 209 210 210 211 213 215 214 214 218 217 217 221 224 225 228 233 240 243 243 246 257 258 258 254 251 251 252 258 263 266
184 190 191 193 196 198 199 202 206 205 204 203 204 207 210 210 210 212 215 215 215 217 216 217 217 220 224 227 228 234 242 248 244 252 258 257 252 249 251 258 260 249 256
176 182 188 190 190 190 191 194 196 196 198 198 198 202 207 210 211 210 213 213 212 214 216 217 219 221 230 233 239 235 235 242 247 250 257 259 257 255 255 259 265 270 261
165 173 177 180 180 182 182 183 185 186 189 190 193 197 201 208 188 195 213 214 212 214 215 215 217 213 211 210 235 255 263 253 257 261 262 264 267 265 266 269 271 270 270
153 155 158 164 168 169 167 168 175 177 174 177 182 188 192 182 155 177 200 216 213 215 216 217 225 223 209 216 207 211 235 251 258 264 271 275 277 276 276 270 267 273 278
142 143 144 147 151 151 153 154 154 158 161 158 160 161 164 148 135 154 164 195 207 206 206 211 217 229 223 223 225 226 232 238 240 242 256 270 281 291 281 274 278 273 267
133 135 140 147 148 149 150 149 146 143 139 134 131 131 133 115 115 144 160 170 169 170 173 178 203 216 66 189 214 223 234 250 229 215 244 266 307 327 309 285 280 278 277
120 125 130 138 142 145 143 141 139 137 131 121 102 93 95 90 83 107 158 165 157 143 106 76 58 56 53 96 189 214 234 261 282 260 236 252 265 273 265 276 286 283 284
106 106 103 109 115 118 118 122 125 124 117 107 97 87 81 75 77 70 80 134 137 124 107 92 66 69 68 75 80 80 330 321 313 305 311 310 302 306 314 312 309 297 294
93 88 89 89 95 101 103 104 108 113 112 107 103 92 78 72 69 75 75 74 88 106 102 93 78 78 79 72 73 39 10 346 338 321 328 335 333 332 330 327 320 305 295
91 86 85 84 81 86 94 98 101 102 105 106 105 99 88 80 80 81 82 78 76 91 90 83 81 90 102 83 68 33 9 4 354 339 340 340 335 335 324 314 301 289 284
92 88 85 85 83 77 76 79 84 87 97 101 101 98 93 79 66 80 104 108 111 107 108 112 111 96 97 87 81 61 45 28 2 358 347 340 335 330 327 329 324 319 304
94 92 91 88 87 79 71 59 67 57 57 78 89 89 90 83 52 42 64 79 86 96 114 112 91 81 70 63 57 48 36 32 17 2 351 341 336 334 334 331 324 317 314
99 97 95 97 96 96 93 80 61 64 60 56 54 69 74 72 71 66 64 62 56 30 76 82 71 59 48 40 37 35 35 27 9 358 351 345 340 338 336 336 331 326 322
99 98 97 97 98 99 101 102 96 78 69 62 58 62 70 71 69 68 70 70 51 42 76 70 61 50 42 35 31 29 27 24 5 360 358 354 348 342 337 335 334 330 326
97 95 98 98 99 101 101 101 100 101 95 82 69 68 71 72 67 58 53 92 74 63 63 60 53 46 41 34 30 25 17 13 8 360 356 353 347 339 336 334 334 334 327
92 93 95 97 98 98 98 98 97 95 95 96 94 88 90 97 86 55 39 65 67 62 59 55 48 41 36 31 22 13 9 6 1 348 351 349 341 335 333 331 328 329 317
87 81 89 97 98 97 95 95 94 93 90 86 79 74 87 91 77 71 65 62 61 58 53 50 43 37 32 24 12 3 360 359 352 345 346 340 336 331 328 326 324 321 319
100 97 97 95 92 91 90 89 89 89 87 85 77 53 16 72 72 67 64 61 57 52 46 39 33 29 27 16 9 1 356 357 355 348 343 338 335 331 326 323 321 320 322
100 99 93 91 90 87 89 90 90 89 89 89 91 85 50 66 69 64 60 57 54 49 42 36 32 30 22 14 6 358 357 357 355 348 340 335 333 332 329 328 330 330 329
97 97 95 92 93 95 92 88 88 87 86 85 82 78 72 68 67 62 58 51 48 44 41 36 31 29 24 17 13 10 8 3 352 344 336 334 335 334 334 334 332 331 332
97 97 97 97 97 94 92 91 89 88 86 84 80 76 72 69 67 62 56 51 46 44 39 36 33 30 25 20 17 21 19 1 345 337 334 329 328 330 331 331 328 331 330
97 98 98 96 95 94 93 91 89 87 84 82 79 76 74 71 67 62 56 50 46 43 38 35 33 31 27 26 22 18 9 358 349 338 325 321 325 328 329 329 329 328 331
95 96 95 94 93 93 93 93 91 88 85 82 79 76 71 67 63 56 49 41 37 39 34 35 33 30 23 24 21 11 4 356 347 337 322 319 327 333 335 329 331 331 334
Height
1493 1495 1498 1500 1503 1506 1509 1512 1515 1519 1523 1526 1530 1533 1536 1540 1543 1545 1548 1550 1552 1554 1555 1557 1558 1560 1562 1563 1565 1565 1566 1567 1567 1567 1567 1566 1565 1566 1566 1566 1566 1565 1565
1491 1492 1495 1497 1500 1503 1505 1508 1511 1514 1518 1522 1525 1529 1532 1535 1538 1541 1543 1546 1548 1550 1551 1553 1554 1556 1557 1559 1560 1561 1562 1563 1563 1563 1563 1563 1562 1562 1561 1561 1562 1562 1561
1489 1491 1492 1494 1497 1499 1502 1504 1507 1510 1513 1517 1520 1524 1527 1530 1533 1536 1539 1541 1543 1545 1547 1549 1550 1552 1553 1554 1555 1557 1558 1558 1558 1559 1559 1559 1559 1558 1558 1557 1557 1556 1557
1487 1489 1490 1492 1494 1496 1498 1501 1504 1506 1510 1513 1516 1520 1523 1526 1529 1531 1534 1537 1539 1541 1543 1544 1546 1548 1549 1550 1551 1552 1553 1554 1554 1555 1555 1555 1554 1554 1553 1553 1553 1552 1551
1486 1487 1488 1490 1492 1494 1496 1498 1501 1504 1507 1510 1513 1516 1519 1522 1525 1527 1530 1533 1535 1537 1539 1540 1542 1543 1544 1546 1548 1549 1549 1550 1550 1550 1550 1550 1550 1550 1550 1549 1549 1548 1547
1486 1487 1488 1489 1490 1492 1494 1496 1499 1501 1504 1507 1510 1513 1516 1518 1520 1523 1526 1529 1531 1533 1534 1536 1538 1539 1540 1541 1542 1544 1545 1545 1546 1546 1546 1546 1546 1546 1545 1545 1544 1543 1542
1486 1487 1487 1488 1490 1492 1494 1496 1498 1500 1502 1505 1508 1510 1513 1515 1517 1520 1523 1525 1527 1529 1531 1532 1534 1535 1536 1537 1538 1539 1540 1541 1541 1541 1541 1541 1542 1541 1541 1540 1539 1538 1537
1486 1487 1488 1488 1490 1492 1494 1496 1498 1500 1502 1504 1507 1509 1511 1513 1516 1518 1520 1522 1524 1526 1527 1529 1530 1531 1533 1533 1534 1535 1536 1536 1536 1536 1536 1536 1536 1536 1535 1535 1534 1533 1531
1486 1487 1488 1489 1490 1492 1494 1496 1498 1500 1502 1504 1506 1509 1511 1513 1515 1517 1518 1520 1521 1523 1524 1526 1527 1528 1529 1530 1530 1531 1531 1532 1532 1532 1532 1531 1531 1531 1530 1530 1529 1528 1527
1486 1487 1488 1489 1490 1492 1494 1496 1499 1500 1502 1505 1507 1508 1510 1512 1514 1515 1517 1518 1519 1520 1522 1523 1524 1525 1526 1526 1527 1527 1528 1528 1529 1528 1527 1527 1526 1526 1525 1524 1524 1524 1522
1486 1488 1489 1490 1491 1493 1495 1497 1499 1501 1503 1505 1506 1508 1509 1511 1512 1513 1515 1516 1517 1519 1520 1521 1521 1522 1523 1523 1524 1524 1525 1525 1525 1525 1524 1524 1522 1522 1521 1520 1519 1518 1517
1487 1488 1489 1490 1492 1493 1495 1497 1499 1501 1504 1505 1507 1508 1510 1511 1512 1513 1514 1515 1517 1518 1519 1520 1520 1521 1522 1522 1522 1522 1522 1523 1523 1523 1522 1521 1520 1519 1517 1516 1514 1513 1512
1488 1489 1490 1491 1493 1494 1496 1498 1500 1502 1504 1506 1508 1509 1511 1512 1513 1514 1515 1516 1516 1517 1518 1519 1520 1521 1521 1521 1521 1521 1521 1521 1521 1521 1520 1519 1518 1516 1515 1513 1512 1510 1509
1489 1490 1492 1493 1495 1496 1498 1500 1502 1504 1506 1508 1509 1510 1512 1513 1514 1515 1516 1517 1517 1517 1518 1519 1520 1521 1521 1521 1521 1521 1520 1520 1519 1519 1518 1517 1516 1514 1513 1511 1509 1508 1506
1491 1493 1494 1496 1497 1498 1500 1502 1504 1506 1508 1510 1511 1513 1514 1514 1516 1516 1517 1518 1518 1519 1520 1521 1522 1522 1522 1522 1521 1521 1520 1519 1518 1517 1517 1516 1514 1513 1511 1509 1507 1505 1504
1494 1496 1498 1499 1501 1502 1503 1505 1508 1509 1511 1512 1513 1514 1515 1517 1517 1518 1518 1519 1519 1520 1521 1522 1522 1522 1522 1522 1522 1521 1520 1519 1517 1517 1516 1514 1513 1512 1510 1508 1506 1504 1502
1498 1499 1501 1503 1505 1507 1508 1510 1511 1514 1515 1516 1516 1517 1518 1519 1519 1520 1520 1520 1520 1521 1522 1522 1523 1523 1522 1522 1522 1521 1520 1518 1517 1516 1515 1513 1512 1510 1508 1506 1503 1502 1499
1502 1503 1505 1507 1509 1511 1513 1514 1516 1517 1518 1519 1520 1520 1520 1521 1521 1521 1522 1523 1523 1523 1523 1523 1523 1523 1523 1522 1522 1520 1519 1518 1517 1515 1514 1512 1510 1508 1506 1504 1502 1500 1497
1506 1508 1509 1511 1513 1515 1516 1518 1519 1521 1521 1523 1523 1524 1524 1524 1524 1524 1524 1525 1525 1525 1524 1524 1524 1524 1523 1522 1521 1520 1519 1518 1516 1514 1513 1511 1509 1507 1505 1503 1500 1497 1495
1510 1511 1513 1515 1517 1518 1520 1521 1522 1524 1525 1525 1526 1527 1528 1528 1528 1527 1527 1527 1527 1526 1526 1526 1525 1525 1524 1523 1521 1520 1519 1517 1515 1514 1512 1510 1508 1506 1503 1501 1498 1496 1493
1514 1516 1517 1519 1520 1522 1523 1524 1525 1527 1527 1528 1528 1528 1529 1530 1530 1529 1529 1529 1528 1528 1527 1527 1526 1526 1524 1523 1521 1520 1519 1517 1515 1513 1511 1508 1506 1504 1501 1499 1496 1494 1491
1518 1520 1521 1522 1523 1525 1526 1527 1528 1529 1530 1530 1531 1531 1531 1532 1532 1531 1531 1531 1530 1530 1529 1528 1527 1526 1524 1523 1521 1520 1518 1516 1514 1511 1509 1507 1505 1502 1500 1497 1495 1492 1489
1521 1523 1524 1525 1526 1527 1528 1530 1530 1531 1532 1532 1533 1534 1534 1534 1534 1533 1533 1532 1532 1531 1530 1529 1527 1526 1524 1522 1521 1519 1517 1514 1512 1509 1507 1505 1503 1500 1498 1496 1493 1490 1487
1525 1526 1527 1528 1529 1530 1531 1532 1533 1533 1534 1534 1535 1535 1535 1535 1535 1535 1534 1534 1533 1532 1531 1529 1528 1526 1524 1522 1521 1518 1515 1512 1509 1507 1505 1503 1501 1499 1497 1494 1492 1489 1486
1527 1528 1529 1531 1531 1532 1533 1534 1534 1535 1536 1536 1537 1537 1537 1537 1537 1536 1535 1535 1534 1533 1531 1530 1528 1526 1524 1522 1519 1517 1514 1511 1508 1506 1503 1502 1500 1498 1496 1493 1491 1488 1485
1530 1531 1532 1533 1533 1534 1535 1535 1536 1537 1537 1538 1538 1538 1538 1538 1538 1537 1536 1535 1535 1533 1532 1531 1528 1526 1524 1522 1519 1516 1513 1510 1507 1505 1502 1501 1499 1497 1495 1492 1490 1487 1484